^^
Station Historical Data
Daily Summary for March 30, 2021 Units:  English    Metric   Both
Daily Weekly Monthly Yearly
  High: Low: Average:
Temperature: 59.4 °F 45.2 °F 51.5 °F
Dew Point: 47.2 °F 36 °F 41 °F
Humidity: 79% 57% 68%
Wind Speed: 17mph 3mph 8.5mph
Wind Gust: 21mph - -
Wind- - SSE
Pressure: 29.92 in 29.66 in -
Precipitation: 0.00 in    
 
 
Tabular Data for March 30, 2021
Time Temperature Dew Point Pressure Wind Wind Speed Wind Gust Humidity Rainfall Rate (Hourly) solar
00:00 45.4 °F 36.5 °F 29.92 in WNW 7 mph 7 mph 71% 0.00 in 0 W/m2
00:05 45.5 °F 36.6 °F 29.92 in North 7 mph 7 mph 71% 0.00 in 0 W/m2
00:10 45.6 °F 36.7 °F 29.92 in NE 6 mph 7 mph 71% 0.00 in 0 W/m2
00:15 45.6 °F 36.7 °F 29.92 in North 7 mph 8 mph 71% 0.00 in 0 W/m2
00:20 45.6 °F 37.1 °F 29.92 in North 7 mph 7 mph 72% 0.00 in 0 W/m2
00:25 45.7 °F 36.8 °F 29.92 in NE 7 mph 8 mph 71% 0.00 in 0 W/m2
00:30 45.8 °F 36.9 °F 29.92 in NE 7 mph 7 mph 71% 0.00 in 0 W/m2
00:35 45.8 °F 36.6 °F 29.92 in ENE 7 mph 7 mph 70% 0.00 in 0 W/m2
00:40 45.9 °F 36.7 °F 29.92 in NNE 7 mph 7 mph 70% 0.00 in 0 W/m2
00:45 45.8 °F 37.3 °F 29.91 in West 7 mph 7 mph 72% 0.00 in 0 W/m2
00:50 45.9 °F 36.7 °F 29.91 in NNE 7 mph 7 mph 70% 0.00 in 0 W/m2
00:55 45.8 °F 36.9 °F 29.91 in NNE 7 mph 7 mph 71% 0.00 in 0 W/m2
01:00 45.7 °F 36.5 °F 29.91 in NNW 7 mph 7 mph 70% 0.00 in 0 W/m2
01:05 45.8 °F 36.9 °F 29.91 in NE 7 mph 7 mph 71% 0.00 in 0 W/m2
01:10 45.8 °F 37.3 °F 29.91 in NE 7 mph 7 mph 72% 0.00 in 0 W/m2
01:15 45.7 °F 36.8 °F 29.91 in North 7 mph 7 mph 71% 0.00 in 0 W/m2
01:20 45.7 °F 36.8 °F 29.91 in NE 7 mph 10 mph 71% 0.00 in 0 W/m2
01:25 45.6 °F 36.7 °F 29.91 in NNE 7 mph 10 mph 71% 0.00 in 0 W/m2
01:30 45.5 °F 37 °F 29.91 in NE 7 mph 8 mph 72% 0.00 in 0 W/m2
01:35 45.5 °F 36.6 °F 29.91 in North 6 mph 8 mph 71% 0.00 in 0 W/m2
01:40 45.4 °F 36.5 °F 29.91 in NNE 6 mph 8 mph 71% 0.00 in 0 W/m2
01:45 45.5 °F 37 °F 29.91 in NNE 6 mph 8 mph 72% 0.00 in 0 W/m2
01:50 45.4 °F 36.9 °F 29.91 in NNE 6 mph 7 mph 72% 0.00 in 0 W/m2
01:55 45.4 °F 36.9 °F 29.91 in NE 6 mph 7 mph 72% 0.00 in 0 W/m2
02:00 45.4 °F 36.9 °F 29.91 in NE 6 mph 6 mph 72% 0.00 in 0 W/m2
02:05 45.5 °F 37 °F 29.91 in NNE 6 mph 7 mph 72% 0.00 in 0 W/m2
02:10 45.4 °F 36.5 °F 29.91 in NE 6 mph 9 mph 71% 0.00 in 0 W/m2
02:15 45.6 °F 36.7 °F 29.90 in NE 6 mph 9 mph 71% 0.00 in 0 W/m2
02:20 45.4 °F 36.5 °F 29.91 in North 6 mph 6 mph 71% 0.00 in 0 W/m2
02:25 45.4 °F 36.5 °F 29.90 in North 5 mph 6 mph 71% 0.00 in 0 W/m2
02:30 45.6 °F 36.7 °F 29.91 in ENE 5 mph 5 mph 71% 0.00 in 0 W/m2
02:35 45.6 °F 36.7 °F 29.90 in North 6 mph 6 mph 71% 0.00 in 0 W/m2
02:40 45.4 °F 36.9 °F 29.90 in NNW 6 mph 6 mph 72% 0.00 in 0 W/m2
02:45 45.6 °F 36.7 °F 29.90 in NNE 5 mph 7 mph 71% 0.00 in 0 W/m2
02:50 45.6 °F 36.7 °F 29.90 in NNE 6 mph 6 mph 71% 0.00 in 0 W/m2
02:55 45.5 °F 36.6 °F 29.90 in NNE 6 mph 6 mph 71% 0.00 in 0 W/m2
03:00 45.5 °F 36.6 °F 29.90 in NNW 5 mph 5 mph 71% 0.00 in 0 W/m2
03:05 45.7 °F 36.5 °F 29.90 in WNW 5 mph 5 mph 70% 0.00 in 0 W/m2
03:10 45.7 °F 36.5 °F 29.90 in NNE 6 mph 6 mph 70% 0.00 in 0 W/m2
03:15 45.7 °F 36.5 °F 29.89 in NNE 6 mph 6 mph 70% 0.00 in 0 W/m2
03:20 45.6 °F 36.7 °F 29.89 in NW 6 mph 6 mph 71% 0.00 in 0 W/m2
03:25 45.6 °F 36.7 °F 29.89 in North 5 mph 6 mph 71% 0.00 in 0 W/m2
03:30 45.7 °F 36.5 °F 29.89 in NE 5 mph 5 mph 70% 0.00 in 0 W/m2
03:35 45.7 °F 36.5 °F 29.89 in NNW 5 mph 5 mph 70% 0.00 in 0 W/m2
03:40 45.8 °F 36.6 °F 29.89 in NNE 5 mph 5 mph 70% 0.00 in 0 W/m2
03:45 45.7 °F 36.5 °F 29.89 in East 5 mph 7 mph 70% 0.00 in 0 W/m2
03:50 45.6 °F 36.7 °F 29.89 in NNE 5 mph 5 mph 71% 0.00 in 0 W/m2
03:55 45.5 °F 36.6 °F 29.89 in East 5 mph 5 mph 71% 0.00 in 0 W/m2
04:00 45.4 °F 36.5 °F 29.89 in NNE 5 mph 5 mph 71% 0.00 in 0 W/m2
04:05 45.2 °F 36.7 °F 29.89 in North 5 mph 5 mph 72% 0.00 in 0 W/m2
04:10 45.3 °F 36.8 °F 29.88 in NNE 5 mph 5 mph 72% 0.00 in 0 W/m2
04:15 45.3 °F 36.8 °F 29.88 in NNE 5 mph 5 mph 72% 0.00 in 0 W/m2
04:20 45.2 °F 36.7 °F 29.88 in ENE 5 mph 5 mph 72% 0.00 in 0 W/m2
04:25 45.2 °F 36.7 °F 29.88 in North 4 mph 5 mph 72% 0.00 in 0 W/m2
04:30 45.4 °F 36.9 °F 29.88 in NNE 4 mph 5 mph 72% 0.00 in 0 W/m2
04:35 45.4 °F 37.2 °F 29.88 in North 4 mph 5 mph 73% 0.00 in 0 W/m2
04:40 45.3 °F 37.2 °F 29.88 in NNE 4 mph 5 mph 73% 0.00 in 0 W/m2
04:45 45.4 °F 37.2 °F 29.89 in NE 4 mph 5 mph 73% 0.00 in 0 W/m2
04:50 45.4 °F 36.9 °F 29.88 in ENE 4 mph 5 mph 72% 0.00 in 0 W/m2
04:55 45.6 °F 36.7 °F 29.88 in NNE 5 mph 5 mph 71% 0.00 in 0 W/m2
05:00 45.8 °F 36.6 °F 29.88 in NNW 5 mph 5 mph 70% 0.00 in 0 W/m2
05:05 45.9 °F 37 °F 29.88 in West 5 mph 5 mph 71% 0.00 in 0 W/m2
05:10 46.1 °F 36.9 °F 29.87 in SW 5 mph 8 mph 70% 0.00 in 0 W/m2
05:15 46.1 °F 37.2 °F 29.87 in NE 5 mph 8 mph 71% 0.00 in 0 W/m2
05:20 46.2 °F 37 °F 29.87 in ESE 5 mph 5 mph 70% 0.00 in 0 W/m2
05:25 46.2 °F 37 °F 29.87 in ENE 5 mph 5 mph 70% 0.00 in 0 W/m2
05:30 46.3 °F 36.7 °F 29.87 in WSW 6 mph 6 mph 69% 0.00 in 0 W/m2
05:35 46.3 °F 37 °F 29.87 in NNE 6 mph 6 mph 70% 0.00 in 0 W/m2
05:40 46.1 °F 36.9 °F 29.87 in NNE 5 mph 5 mph 70% 0.00 in 0 W/m2
05:45 46.1 °F 36.9 °F 29.87 in SSW 5 mph 6 mph 70% 0.00 in 0 W/m2
05:50 46 °F 37.1 °F 29.87 in East 6 mph 7 mph 71% 0.00 in 0 W/m2
05:55 46 °F 37.1 °F 29.87 in NE 6 mph 7 mph 71% 0.00 in 0 W/m2
06:00 46.1 °F 36.9 °F 29.87 in NNE 6 mph 6 mph 70% 0.00 in 0 W/m2
06:05 46.1 °F 37.2 °F 29.87 in North 6 mph 6 mph 71% 0.00 in 0 W/m2
06:10 46.1 °F 36.9 °F 29.87 in NE 6 mph 6 mph 70% 0.00 in 0 W/m2
06:15 46.1 °F 37.2 °F 29.87 in SW 6 mph 6 mph 71% 0.00 in 0 W/m2
06:20 46 °F 37.1 °F 29.87 in NE 6 mph 6 mph 71% 0.00 in 0 W/m2
06:25 46.2 °F 37 °F 29.87 in WSW 6 mph 7 mph 70% 0.00 in 0 W/m2
06:30 46.3 °F 36.7 °F 29.86 in ENE 7 mph 8 mph 69% 0.00 in 0 W/m2
06:35 46.3 °F 36.7 °F 29.87 in North 7 mph 8 mph 69% 0.00 in 0 W/m2
06:40 46.2 °F 36.6 °F 29.86 in NNE 6 mph 6 mph 69% 0.00 in 0 W/m2
06:45 46.2 °F 36.6 °F 29.85 in NE 6 mph 7 mph 69% 0.00 in 0 W/m2
06:50 46.2 °F 36.6 °F 29.86 in NE 7 mph 7 mph 69% 0.00 in 0 W/m2
06:55 46.1 °F 36.9 °F 29.86 in NE 7 mph 7 mph 70% 0.00 in 0 W/m2
07:00 45.9 °F 36.7 °F 29.85 in NNE 7 mph 7 mph 70% 0.00 in 0 W/m2
07:05 46 °F 36.8 °F 29.85 in North 7 mph 9 mph 70% 0.00 in 0 W/m2
07:10 46.1 °F 36.5 °F 29.85 in NE 7 mph 7 mph 69% 0.00 in 5 W/m2
07:15 46.2 °F 36.6 °F 29.85 in NE 7 mph 9 mph 69% 0.00 in 7 W/m2
07:20 46.1 °F 36.5 °F 29.85 in NNE 7 mph 7 mph 69% 0.00 in 7 W/m2
07:25 46.2 °F 36.6 °F 29.85 in North 7 mph 7 mph 69% 0.00 in 12 W/m2
07:30 46.2 °F 36.6 °F 29.85 in North 7 mph 9 mph 69% 0.00 in 18 W/m2
07:35 46.2 °F 36.6 °F 29.84 in North 7 mph 9 mph 69% 0.00 in 21 W/m2
07:40 46.4 °F 36 °F 29.84 in NNW 7 mph 7 mph 67% 0.00 in 28 W/m2
07:45 46.5 °F 36.5 °F 29.84 in North 7 mph 10 mph 68% 0.00 in 37 W/m2
07:50 46.7 °F 36.3 °F 29.84 in NE 7 mph 7 mph 67% 0.00 in 42 W/m2
07:55 46.9 °F 36.1 °F 29.84 in NW 7 mph 8 mph 66% 0.00 in 47 W/m2
08:00 47 °F 36.6 °F 29.84 in North 8 mph 8 mph 67% 0.00 in 62 W/m2
08:05 47.1 °F 36.7 °F 29.83 in North 8 mph 8 mph 67% 0.00 in 58 W/m2
08:10 47.1 °F 36.7 °F 29.83 in NNW 8 mph 8 mph 67% 0.00 in 74 W/m2
08:15 47.2 °F 36.4 °F 29.83 in NNE 8 mph 8 mph 66% 0.00 in 67 W/m2
08:20 47.2 °F 36.4 °F 29.83 in NE 8 mph 8 mph 66% 0.00 in 74 W/m2
08:25 47.3 °F 36.9 °F 29.83 in NNE 8 mph 8 mph 67% 0.00 in 83 W/m2
08:30 47.2 °F 37.2 °F 29.83 in NNW 8 mph 9 mph 68% 0.00 in 81 W/m2
08:35 47.3 °F 36.9 °F 29.82 in NNE 7 mph 9 mph 67% 0.00 in 102 W/m2
08:40 47.6 °F 37.2 °F 29.82 in NNW 7 mph 8 mph 67% 0.00 in 125 W/m2
08:45 47.8 °F 37 °F 29.82 in NNE 8 mph 8 mph 66% 0.00 in 172 W/m2
08:50 48.1 °F 37.3 °F 29.81 in North 8 mph 8 mph 66% 0.00 in 213 W/m2
08:55 48.3 °F 37.5 °F 29.81 in NE 8 mph 8 mph 66% 0.00 in 169 W/m2
09:00 48.5 °F 37.7 °F 29.81 in North 8 mph 9 mph 66% 0.00 in 206 W/m2
09:05 48.5 °F 37.3 °F 29.81 in NE 8 mph 9 mph 65% 0.00 in 178 W/m2
09:10 48.4 °F 37.9 °F 29.80 in NNW 8 mph 9 mph 67% 0.00 in 165 W/m2
09:15 48.3 °F 37.5 °F 29.80 in NE 9 mph 9 mph 66% 0.00 in 146 W/m2
09:20 48.6 °F 37.7 °F 29.79 in North 9 mph 13 mph 66% 0.00 in 204 W/m2
09:25 48.8 °F 37.9 °F 29.78 in North 8 mph 13 mph 66% 0.00 in 200 W/m2
09:30 49.1 °F 37.8 °F 29.78 in ENE 8 mph 10 mph 65% 0.00 in 204 W/m2
09:35 49.4 °F 38.1 °F 29.77 in ESE 8 mph 10 mph 65% 0.00 in 279 W/m2
09:40 49.5 °F 38.2 °F 29.77 in NW 8 mph 8 mph 65% 0.00 in 190 W/m2
09:45 49.6 °F 37.9 °F 29.77 in NE 9 mph 10 mph 64% 0.00 in 171 W/m2
09:50 49.7 °F 38.4 °F 29.78 in WSW 9 mph 9 mph 65% 0.00 in 202 W/m2
09:55 50.1 °F 38.8 °F 29.77 in SE 8 mph 9 mph 65% 0.00 in 323 W/m2
10:00 50.2 °F 38.5 °F 29.77 in NNE 8 mph 9 mph 64% 0.00 in 188 W/m2
10:05 50.4 °F 39.1 °F 29.77 in NE 8 mph 9 mph 65% 0.00 in 272 W/m2
10:10 50.8 °F 39.1 °F 29.77 in ENE 8 mph 8 mph 64% 0.00 in 464 W/m2
10:15 51.2 °F 39.4 °F 29.77 in ENE 7 mph 9 mph 64% 0.00 in 332 W/m2
10:20 50.9 °F 38.7 °F 29.76 in NNE 7 mph 10 mph 63% 0.00 in 178 W/m2
10:25 51.2 °F 38.6 °F 29.75 in NNE 8 mph 10 mph 62% 0.00 in 366 W/m2
10:30 51.7 °F 39.1 °F 29.76 in NNE 8 mph 8 mph 62% 0.00 in 538 W/m2
10:35 51.9 °F 39.7 °F 29.76 in WSW 8 mph 9 mph 63% 0.00 in 561 W/m2
10:40 51.7 °F 39.5 °F 29.76 in NE 8 mph 8 mph 63% 0.00 in 452 W/m2
10:45 51.9 °F 39.7 °F 29.75 in East 7 mph 10 mph 63% 0.00 in 575 W/m2
10:50 52.2 °F 39.6 °F 29.75 in SW 8 mph 8 mph 62% 0.00 in 599 W/m2
10:55 52.2 °F 40 °F 29.75 in SSE 8 mph 15 mph 63% 0.00 in 587 W/m2
11:00 52.2 °F 40 °F 29.75 in West 7 mph 9 mph 63% 0.00 in 499 W/m2
11:05 52.4 °F 40.2 °F 29.75 in South 8 mph 15 mph 63% 0.00 in 603 W/m2
11:10 52.5 °F 39.8 °F 29.74 in West 9 mph 9 mph 62% 0.00 in 592 W/m2
11:15 52.7 °F 40.5 °F 29.74 in ESE 8 mph 9 mph 63% 0.00 in 636 W/m2
11:25 52.9 °F 40.6 °F 29.74 in West 7 mph 8 mph 63% 0.00 in 703 W/m2
11:30 53.3 °F 40.6 °F 29.74 in WSW 8 mph 13 mph 62% 0.00 in 531 W/m2
11:35 53.1 °F 41.2 °F 29.73 in SSW 8 mph 13 mph 64% 0.00 in 578 W/m2
11:40 53.2 °F 41.7 °F 29.73 in SSE 8 mph 12 mph 65% 0.00 in 529 W/m2
11:45 53.3 °F 41.4 °F 29.73 in SSE 7 mph 12 mph 64% 0.00 in 712 W/m2
11:50 53.6 °F 40.9 °F 29.73 in South 8 mph 13 mph 62% 0.00 in 675 W/m2
11:55 53.5 °F 41.6 °F 29.72 in SE 8 mph 13 mph 64% 0.00 in 633 W/m2
12:05 53.9 °F 42 °F 29.70 in SW 7 mph 10 mph 64% 0.00 in 461 W/m2
12:10 54.1 °F 41.8 °F 29.70 in South 8 mph 8 mph 63% 0.00 in 561 W/m2
12:15 53.9 °F 41.6 °F 29.69 in ENE 8 mph 8 mph 63% 0.00 in 612 W/m2
12:20 53.9 °F 42 °F 29.68 in NNE 8 mph 8 mph 64% 0.00 in 494 W/m2
12:25 53.9 °F 42 °F 29.68 in NE 7 mph 8 mph 64% 0.00 in 540 W/m2
12:30 54.3 °F 42 °F 29.68 in ESE 8 mph 8 mph 63% 0.00 in 490 W/m2
12:45 55.2 °F 42.4 °F 29.67 in ENE 8 mph 8 mph 62% 0.00 in 686 W/m2
12:50 55.7 °F 42.5 °F 29.67 in SSE 8 mph 8 mph 61% 0.00 in 643 W/m2
12:55 55.7 °F 43.3 °F 29.67 in South 7 mph 8 mph 63% 0.00 in 675 W/m2
13:00 55.7 °F 43.3 °F 29.67 in South 7 mph 12 mph 63% 0.00 in 721 W/m2
13:05 55.9 °F 43.1 °F 29.67 in South 8 mph 12 mph 62% 0.00 in 673 W/m2
13:10 55.9 °F 43.1 °F 29.67 in East 9 mph 10 mph 62% 0.00 in 705 W/m2
13:15 56.1 °F 43.3 °F 29.67 in SSW 9 mph 12 mph 62% 0.00 in 694 W/m2
13:20 56.8 °F 43.1 °F 29.67 in South 9 mph 9 mph 60% 0.00 in 703 W/m2
13:25 56.9 °F 43.6 °F 29.67 in ESE 10 mph 10 mph 61% 0.00 in 700 W/m2
13:30 56.7 °F 43.8 °F 29.67 in SW 9 mph 9 mph 62% 0.00 in 728 W/m2
13:35 57 °F 43.7 °F 29.67 in East 9 mph 12 mph 61% 0.00 in 693 W/m2
13:40 56.4 °F 43.1 °F 29.67 in SSW 11 mph 16 mph 61% 0.00 in 664 W/m2
13:45 57.5 °F 43.3 °F 29.67 in SSW 15 mph 17 mph 59% 0.00 in 598 W/m2
13:50 57.2 °F 43 °F 29.67 in SW 16 mph 16 mph 59% 0.00 in 712 W/m2
13:55 57.3 °F 43.1 °F 29.67 in SW 16 mph 17 mph 59% 0.00 in 694 W/m2
14:00 57.3 °F 43.1 °F 29.67 in SW 16 mph 21 mph 59% 0.00 in 629 W/m2
14:05 58 °F 42.8 °F 29.67 in SW 17 mph 21 mph 57% 0.00 in 671 W/m2
14:15 58.1 °F 43.4 °F 29.67 in SSW 16 mph 18 mph 58% 0.00 in 656 W/m2
14:20 58.2 °F 43.5 °F 29.67 in South 15 mph 15 mph 58% 0.00 in 752 W/m2
14:25 58.3 °F 43.6 °F 29.67 in SSW 15 mph 16 mph 58% 0.00 in 731 W/m2
14:30 58.3 °F 44 °F 29.67 in WSW 16 mph 16 mph 59% 0.00 in 647 W/m2
14:35 58.2 °F 43.9 °F 29.67 in SW 15 mph 17 mph 59% 0.00 in 638 W/m2
14:40 57.6 °F 44.2 °F 29.67 in SSW 14 mph 14 mph 61% 0.00 in 629 W/m2
14:45 57.7 °F 43.9 °F 29.67 in SSW 15 mph 15 mph 60% 0.00 in 745 W/m2
14:50 57.9 °F 44.1 °F 29.67 in SSW 15 mph 15 mph 60% 0.00 in 563 W/m2
14:55 57.6 °F 43.8 °F 29.67 in SSW 14 mph 15 mph 60% 0.00 in 584 W/m2
15:00 57.9 °F 44.1 °F 29.67 in SSW 14 mph 17 mph 60% 0.00 in 622 W/m2
15:10 58.5 °F 43.8 °F 29.66 in SSW 16 mph 16 mph 58% 0.00 in 455 W/m2
15:15 58.8 °F 44 °F 29.67 in SW 16 mph 18 mph 58% 0.00 in 710 W/m2
15:20 58.7 °F 44.4 °F 29.67 in South 16 mph 16 mph 59% 0.00 in 427 W/m2
15:25 58.4 °F 44.1 °F 29.67 in SW 15 mph 16 mph 59% 0.00 in 445 W/m2
15:30 58.2 °F 44.4 °F 29.66 in SW 14 mph 17 mph 60% 0.00 in 431 W/m2
15:35 58.4 °F 44.6 °F 29.67 in SSW 15 mph 17 mph 60% 0.00 in 504 W/m2
15:40 57 °F 44.1 °F 29.67 in SSW 15 mph 15 mph 62% 0.00 in 578 W/m2
15:45 56.7 °F 44.2 °F 29.67 in SW 13 mph 15 mph 63% 0.00 in 438 W/m2
15:50 56.9 °F 44.4 °F 29.67 in SW 12 mph 12 mph 63% 0.00 in 512 W/m2
15:55 57.2 °F 45.1 °F 29.67 in SSW 12 mph 12 mph 64% 0.00 in 578 W/m2
16:00 56.7 °F 44.7 °F 29.67 in SSW 10 mph 12 mph 64% 0.00 in 534 W/m2
16:05 57 °F 44.5 °F 29.67 in SW 11 mph 12 mph 63% 0.00 in 628 W/m2
16:10 57.6 °F 44.7 °F 29.66 in SW 12 mph 13 mph 62% 0.00 in 626 W/m2
16:15 57.6 °F 45.1 °F 29.66 in SW 13 mph 13 mph 63% 0.00 in 605 W/m2
16:20 57.5 °F 44.6 °F 29.66 in SSW 13 mph 13 mph 62% 0.00 in 573 W/m2
16:25 57.8 °F 45.3 °F 29.66 in SE 14 mph 14 mph 63% 0.00 in 548 W/m2
16:30 58.4 °F 45.4 °F 29.67 in SW 13 mph 13 mph 62% 0.00 in 508 W/m2
16:35 58.9 °F 45 °F 29.67 in SW 13 mph 13 mph 60% 0.00 in 548 W/m2
16:40 58.9 °F 45 °F 29.67 in SW 14 mph 14 mph 60% 0.00 in 522 W/m2
16:45 58.5 °F 45.1 °F 29.67 in SSE 14 mph 18 mph 61% 0.00 in 520 W/m2
16:50 58.7 °F 45.3 °F 29.67 in South 14 mph 15 mph 61% 0.00 in 492 W/m2
16:55 59.4 °F 45.5 °F 29.67 in WSW 14 mph 18 mph 60% 0.00 in 501 W/m2
17:00 58.7 °F 45.7 °F 29.67 in SW 14 mph 14 mph 62% 0.00 in 445 W/m2
17:05 58.8 °F 45.8 °F 29.67 in SSW 13 mph 14 mph 62% 0.00 in 476 W/m2
17:10 58 °F 45.5 °F 29.67 in SW 12 mph 16 mph 63% 0.00 in 462 W/m2
17:15 58.4 °F 45.4 °F 29.66 in SSW 13 mph 16 mph 62% 0.00 in 459 W/m2
17:20 58.9 °F 45.5 °F 29.67 in SW 14 mph 17 mph 61% 0.00 in 473 W/m2
17:25 59.4 °F 45.9 °F 29.66 in SSW 15 mph 17 mph 61% 0.00 in 459 W/m2
17:30 59.3 °F 45.8 °F 29.67 in SW 15 mph 15 mph 61% 0.00 in 432 W/m2
17:35 59.3 °F 45.8 °F 29.67 in SSW 15 mph 17 mph 61% 0.00 in 410 W/m2
17:40 59 °F 45.6 °F 29.67 in SSW 14 mph 14 mph 61% 0.00 in 345 W/m2
17:45 58.1 °F 45.6 °F 29.67 in WSW 13 mph 17 mph 63% 0.00 in 371 W/m2
17:50 58.1 °F 45.6 °F 29.67 in SW 14 mph 15 mph 63% 0.00 in 362 W/m2
17:55 58.4 °F 45.8 °F 29.67 in SW 15 mph 15 mph 63% 0.00 in 299 W/m2
18:00 57.3 °F 45.2 °F 29.67 in SSW 13 mph 16 mph 64% 0.00 in 302 W/m2
18:05 57.5 °F 45.4 °F 29.67 in SSW 12 mph 16 mph 64% 0.00 in 339 W/m2
18:10 57.5 °F 45.4 °F 29.67 in SSW 14 mph 14 mph 64% 0.00 in 306 W/m2
18:15 57.7 °F 45.6 °F 29.67 in South 13 mph 14 mph 64% 0.00 in 276 W/m2
18:20 57.8 °F 45.3 °F 29.67 in SW 13 mph 14 mph 63% 0.00 in 86 W/m2
18:25 58.1 °F 45.6 °F 29.67 in SSW 13 mph 15 mph 63% 0.00 in 70 W/m2
18:30 58.8 °F 45.8 °F 29.67 in SSW 14 mph 14 mph 62% 0.00 in 77 W/m2
18:35 58.4 °F 45.8 °F 29.67 in WSW 14 mph 15 mph 63% 0.00 in 79 W/m2
18:45 57.3 °F 45.6 °F 29.68 in South 13 mph 13 mph 65% 0.00 in 65 W/m2
18:50 57.1 °F 45.4 °F 29.68 in South 12 mph 13 mph 65% 0.00 in 46 W/m2
18:55 57.1 °F 45.4 °F 29.68 in SSW 12 mph 12 mph 65% 0.00 in 35 W/m2
19:00 57.5 °F 45.4 °F 29.68 in West 12 mph 12 mph 64% 0.00 in 28 W/m2
19:05 57 °F 45.7 °F 29.67 in SW 11 mph 12 mph 66% 0.00 in 26 W/m2
19:10 56.2 °F 45.4 °F 29.67 in SW 9 mph 9 mph 67% 0.00 in 21 W/m2
19:15 55.6 °F 45.2 °F 29.67 in WSW 8 mph 9 mph 68% 0.00 in 18 W/m2
19:20 55.3 °F 45.3 °F 29.68 in WSW 7 mph 7 mph 69% 0.00 in 14 W/m2
19:25 55 °F 45.4 °F 29.67 in SW 6 mph 7 mph 70% 0.00 in 11 W/m2
19:30 54.7 °F 45.1 °F 29.68 in SW 5 mph 6 mph 70% 0.00 in 9 W/m2
19:35 54.3 °F 45.1 °F 29.68 in SW 6 mph 6 mph 71% 0.00 in 5 W/m2
19:40 54.1 °F 44.9 °F 29.68 in SW 6 mph 6 mph 71% 0.00 in 0 W/m2
19:45 54 °F 44.8 °F 29.68 in WSW 6 mph 6 mph 71% 0.00 in 0 W/m2
19:50 53.9 °F 44.7 °F 29.68 in WSW 5 mph 5 mph 71% 0.00 in 0 W/m2
19:55 53.8 °F 44.2 °F 29.68 in WSW 5 mph 5 mph 70% 0.00 in 0 W/m2
20:00 53.9 °F 44.3 °F 29.69 in SSW 5 mph 7 mph 70% 0.00 in 0 W/m2
20:05 53.8 °F 44.2 °F 29.69 in WSW 5 mph 7 mph 70% 0.00 in 0 W/m2
20:10 53.7 °F 44.5 °F 29.68 in SSW 6 mph 6 mph 71% 0.00 in 0 W/m2
20:15 53.7 °F 44.5 °F 29.69 in WSW 5 mph 6 mph 71% 0.00 in 0 W/m2
20:20 53.8 °F 44.6 °F 29.69 in SW 5 mph 5 mph 71% 0.00 in 0 W/m2
20:25 54.1 °F 44.2 °F 29.68 in West 6 mph 6 mph 69% 0.00 in 0 W/m2
20:30 54.6 °F 44.2 °F 29.69 in WSW 5 mph 7 mph 68% 0.00 in 0 W/m2
20:35 55 °F 44.2 °F 29.69 in WSW 5 mph 7 mph 67% 0.00 in 0 W/m2
20:40 55.5 °F 44.3 °F 29.69 in West 6 mph 7 mph 66% 0.00 in 0 W/m2
20:45 55.3 °F 44.5 °F 29.69 in West 5 mph 7 mph 67% 0.00 in 0 W/m2
20:50 55.2 °F 44.4 °F 29.69 in West 5 mph 5 mph 67% 0.00 in 0 W/m2
20:55 54.9 °F 44.5 °F 29.70 in West 4 mph 5 mph 68% 0.00 in 0 W/m2
21:00 54.7 °F 44.7 °F 29.70 in West 4 mph 4 mph 69% 0.00 in 0 W/m2
21:05 54.3 °F 44.7 °F 29.71 in West 3 mph 4 mph 70% 0.00 in 0 W/m2
21:10 53.9 °F 44.3 °F 29.71 in West 3 mph 4 mph 70% 0.00 in 0 W/m2
21:15 53.7 °F 44.5 °F 29.71 in West 3 mph 4 mph 71% 0.00 in 0 W/m2
21:20 53.3 °F 44.5 °F 29.72 in WSW 3 mph 3 mph 72% 0.00 in 0 W/m2
21:25 53 °F 44.2 °F 29.71 in SW 3 mph 3 mph 72% 0.00 in 0 W/m2
21:30 52.5 °F 44.4 °F 29.72 in SW 3 mph 3 mph 74% 0.00 in 0 W/m2
21:35 52.2 °F 44.5 °F 29.72 in WSW 3 mph 4 mph 75% 0.00 in 0 W/m2
21:40 51.9 °F 44.9 °F 29.73 in SW 4 mph 4 mph 77% 0.00 in 0 W/m2
21:45 51.8 °F 44.8 °F 29.73 in WSW 5 mph 5 mph 77% 0.00 in 0 W/m2
21:50 51.9 °F 44.9 °F 29.74 in SW 6 mph 6 mph 77% 0.00 in 0 W/m2
21:55 51.8 °F 45.2 °F 29.74 in SE 6 mph 11 mph 78% 0.00 in 0 W/m2
22:00 51.6 °F 45 °F 29.74 in West 6 mph 6 mph 78% 0.00 in 0 W/m2
22:05 51.5 °F 45.2 °F 29.75 in SW 7 mph 7 mph 79% 0.00 in 0 W/m2
22:10 51.5 °F 45.2 °F 29.75 in SW 8 mph 9 mph 79% 0.00 in 0 W/m2
22:15 51.7 °F 45.4 °F 29.75 in SSW 9 mph 12 mph 79% 0.00 in 0 W/m2
22:20 52.5 °F 46.2 °F 29.74 in SSW 11 mph 11 mph 79% 0.00 in 0 W/m2
22:25 53 °F 46.3 °F 29.74 in WSW 12 mph 13 mph 78% 0.00 in 0 W/m2
22:30 53.1 °F 46.4 °F 29.74 in SSW 12 mph 12 mph 78% 0.00 in 0 W/m2
22:35 53 °F 46.3 °F 29.74 in SSW 13 mph 13 mph 78% 0.00 in 0 W/m2
22:40 53.8 °F 46.8 °F 29.74 in SW 15 mph 17 mph 77% 0.00 in 0 W/m2
22:45 54 °F 47 °F 29.74 in SSW 15 mph 17 mph 77% 0.00 in 0 W/m2
22:50 54 °F 47 °F 29.74 in SSW 13 mph 13 mph 77% 0.00 in 0 W/m2
22:55 53.9 °F 47.2 °F 29.73 in South 11 mph 13 mph 78% 0.00 in 0 W/m2
23:00 54.2 °F 47.1 °F 29.73 in SSW 11 mph 11 mph 77% 0.00 in 0 W/m2
23:05 54.3 °F 47.2 °F 29.73 in South 12 mph 12 mph 77% 0.00 in 0 W/m2
23:10 54.3 °F 47.2 °F 29.73 in SW 12 mph 13 mph 77% 0.00 in 0 W/m2
23:15 54.3 °F 47.2 °F 29.73 in SSW 12 mph 14 mph 77% 0.00 in 0 W/m2
23:20 54.2 °F 47.1 °F 29.73 in SW 12 mph 12 mph 77% 0.00 in 0 W/m2
23:25 54 °F 47 °F 29.74 in SSW 12 mph 12 mph 77% 0.00 in 0 W/m2
23:30 53.8 °F 47.1 °F 29.74 in SSW 11 mph 11 mph 78% 0.00 in 0 W/m2
23:35 53.7 °F 47 °F 29.74 in SSW 11 mph 11 mph 78% 0.00 in 0 W/m2
23:40 53.5 °F 46.8 °F 29.74 in SSW 11 mph 14 mph 78% 0.00 in 0 W/m2
23:45 53.5 °F 47.1 °F 29.74 in SW 12 mph 15 mph 79% 0.00 in 0 W/m2
23:50 53.4 °F 47 °F 29.74 in SW 13 mph 14 mph 79% 0.00 in 0 W/m2
23:55 53.1 °F 46.4 °F 29.75 in SW 12 mph 14 mph 78% 0.00 in 0 W/m2
Sand Point, Michigan, USA
Compliments of Weather Underground - 2 mb